Wind_Speed
13 12 12 12 13 12 11 12 12 12 12 11 12 14 14 15 16 16 15 14 15 16 15 15 13 13 12 10 9 8 7 6 5 4 4 4 4 3 3 2 1 2 2
15 12 11 13 13 12 12 11 11 12 12 12 13 13 14 14 15 16 16 16 16 16 16 16 15 13 12 11 10 10 9 7 6 5 4 4 4 3 3 2 2 2 2
14 13 12 12 11 12 11 10 10 10 11 12 14 14 14 14 15 16 17 17 17 17 16 16 15 14 14 13 12 11 10 9 7 6 5 5 4 4 3 2 2 2 1
14 13 12 11 11 11 10 10 10 9 10 11 13 15 15 15 16 18 19 18 18 18 16 16 16 16 15 14 13 13 12 10 9 7 6 5 4 4 3 3 2 2 2
13 13 12 11 10 10 9 9 10 10 10 11 12 14 14 15 17 19 19 19 19 18 17 17 17 17 17 16 15 14 13 11 10 8 7 6 6 5 5 4 3 3 3
11 11 10 10 8 8 8 8 9 10 10 10 11 13 14 15 17 19 20 19 19 19 18 18 18 19 18 17 16 15 14 12 11 10 9 8 7 7 6 6 5 5 4
8 8 8 9 8 8 8 7 8 9 9 10 10 12 13 14 16 18 20 19 19 20 20 19 18 19 19 18 18 17 16 14 13 12 11 10 9 8 8 7 6 6 6
7 7 8 9 8 8 8 7 7 7 8 9 10 12 13 14 16 18 18 19 19 20 20 19 19 20 20 19 18 17 17 16 15 14 13 12 11 10 10 9 9 8 9
7 7 7 7 8 8 8 7 7 7 8 8 10 12 14 15 16 17 18 19 19 19 20 20 20 19 19 19 19 19 18 18 17 16 15 13 13 12 12 12 11 11 12
6 6 7 7 7 7 8 7 6 7 7 8 10 12 14 15 15 17 18 19 19 20 20 20 20 19 19 19 19 18 18 19 18 18 17 16 15 15 15 15 15 15 15
6 6 6 6 6 7 7 7 7 7 7 6 7 11 14 16 16 16 17 19 20 20 19 20 21 21 20 19 19 19 20 20 19 19 19 18 18 17 18 18 18 19 19
5 5 6 6 6 6 6 6 7 7 6 5 5 9 13 14 15 16 16 17 20 20 20 21 21 21 21 21 20 20 20 20 20 20 19 20 20 20 20 21 21 22 22
6 5 5 6 6 7 6 6 7 7 6 5 6 8 10 13 15 15 16 16 17 19 21 21 22 22 22 21 21 21 20 21 21 21 21 22 22 23 23 24 24 24 25
6 5 6 6 7 8 7 7 7 7 7 5 6 8 9 11 13 14 15 16 17 19 20 21 22 22 23 22 22 22 22 22 22 23 24 24 24 25 25 26 27 27 27
8 7 8 8 8 8 8 8 7 7 6 6 5 8 10 11 12 13 13 14 15 16 18 19 20 21 21 21 21 22 23 23 23 24 25 26 26 27 27 28 29 30 30
11 10 10 10 10 10 10 9 7 7 7 6 7 7 9 10 10 11 13 15 16 16 17 18 19 20 21 22 23 24 25 25 25 26 27 27 29 30 30 31 31 32 32
14 13 12 12 12 12 12 10 9 8 8 8 7 7 8 11 12 12 12 14 16 17 18 19 20 20 22 23 24 24 24 25 26 27 28 30 31 32 32 32 33 33 34
16 15 14 14 14 13 13 13 11 10 10 10 10 9 8 10 12 13 14 14 15 16 18 19 20 21 22 23 24 26 26 26 27 28 29 30 30 31 31 32 33 34 35
19 18 17 16 16 15 14 14 14 13 12 13 12 12 12 11 12 13 15 16 16 17 18 19 20 21 22 23 25 26 26 27 27 28 29 30 31 32 33 34 35 35 36
21 20 19 19 18 17 16 16 16 15 14 14 14 14 14 14 15 15 15 16 17 17 18 19 20 20 22 23 24 25 27 28 28 28 29 30 32 33 34 35 37 38 39
22 22 22 21 20 19 19 18 17 15 16 16 16 16 16 16 17 17 17 17 18 19 20 20 21 22 24 25 25 26 27 28 29 30 31 32 33 35 36 37 38 38 40
23 23 22 22 21 21 21 20 19 18 17 17 17 17 17 18 18 18 19 19 20 20 21 23 23 23 24 26 27 28 29 31 32 33 34 35 36 37 38 39 39 40 41
23 23 23 24 23 22 22 22 21 20 20 19 19 18 18 19 19 19 20 21 21 21 22 23 24 25 26 27 28 30 31 32 33 34 35 36 37 38 39 40 41 42 43
24 24 24 24 24 23 23 23 23 22 21 20 20 19 20 21 22 22 23 23 23 23 24 25 26 27 28 29 30 31 32 34 35 35 36 37 38 39 41 42 44 45 47
23 23 23 23 23 23 23 24 23 23 23 22 22 22 22 23 24 23 23 23 24 25 26 26 28 29 30 31 33 33 34 35 36 37 38 39 40 42 44 45 47 48 50
23 23 22 22 22 22 23 23 23 22 23 23 23 24 24 23 24 24 25 26 27 27 27 28 29 30 31 32 33 33 34 35 36 38 40 41 43 45 46 47 49 51 52
Wind_Direction
309 309 308 308 307 305 297 293 284 273 262 253 248 243 237 231 230 228 229 225 218 214 212 211 215 216 214 213 210 209 207 204 201 201 200 195 191 196 208 222 225 200 188
306 314 312 310 309 305 295 290 278 270 256 248 244 240 233 231 231 224 221 216 212 211 209 209 213 215 214 211 208 207 204 201 201 201 196 191 191 199 203 207 205 196 190
305 312 312 314 312 307 295 285 278 272 255 245 241 236 231 231 228 222 216 213 213 210 211 211 211 212 211 209 207 206 202 201 206 208 203 195 191 185 180 185 197 185 181
301 306 307 309 316 309 295 284 271 265 259 254 240 232 228 228 224 218 213 213 210 209 212 211 210 210 209 209 208 209 208 209 211 211 211 208 201 199 196 198 190 184 196
298 302 306 305 312 315 303 287 277 272 266 254 239 228 226 226 222 215 213 211 209 211 215 214 213 212 211 211 211 211 211 213 214 215 217 214 212 214 217 214 207 215 227
302 305 308 309 316 320 314 296 281 273 269 257 240 229 226 225 220 215 215 214 211 212 218 215 216 214 212 215 215 215 216 217 218 219 219 220 221 224 226 228 230 239 250
305 307 313 316 320 321 320 304 291 281 269 256 246 229 220 220 217 215 216 214 213 213 217 217 218 216 216 217 217 219 220 221 222 223 226 228 230 233 237 241 247 254 263
306 307 314 317 320 324 323 316 306 285 269 260 250 231 221 217 214 213 212 211 212 213 216 218 215 216 218 221 221 221 223 224 227 230 233 235 237 240 244 248 252 260 268
302 312 317 318 319 323 321 316 310 294 273 261 248 229 221 217 215 213 211 209 210 212 215 214 214 217 219 221 222 225 226 229 232 236 238 241 243 246 250 253 259 265 270
300 313 314 316 315 316 321 315 317 309 284 268 248 229 220 217 217 215 213 212 213 215 215 218 218 219 220 222 223 226 229 233 236 238 241 246 249 252 253 257 263 268 272
285 302 305 306 305 306 307 310 314 317 302 284 249 223 217 215 215 214 215 218 218 218 219 219 220 220 222 224 226 229 233 235 237 241 245 248 253 256 260 263 268 271 274
293 304 298 302 305 305 300 305 312 317 309 286 248 220 216 216 215 216 218 221 222 222 223 221 220 222 224 227 230 234 237 238 239 243 249 252 256 260 264 268 272 274 275
280 293 297 303 309 303 302 303 309 313 304 283 247 225 216 216 215 218 222 223 223 222 223 223 222 225 227 231 235 237 239 242 243 246 252 257 260 263 266 270 273 277 277
281 292 298 301 308 307 302 306 305 306 305 285 246 228 221 218 218 222 226 225 224 224 225 224 227 227 230 234 237 240 243 246 248 250 255 260 262 265 269 272 274 277 278
285 287 298 299 306 307 304 303 303 300 296 281 253 235 229 225 225 226 226 225 224 224 224 224 225 228 232 235 239 244 247 251 252 254 258 262 265 268 270 272 275 276 277
283 285 284 288 294 296 294 292 290 291 296 287 264 253 238 231 232 232 230 230 228 227 228 229 231 233 237 242 245 248 252 256 258 260 259 263 268 269 271 273 275 277 279
276 278 279 281 284 286 282 278 276 278 282 284 281 267 250 240 242 245 242 240 235 235 235 235 237 241 245 248 249 254 256 258 262 265 264 266 269 271 272 275 277 278 279
271 271 270 273 277 280 278 270 270 271 271 269 269 268 263 255 251 250 248 246 243 242 242 244 246 248 250 252 255 256 258 263 266 269 268 269 272 273 275 278 278 278 279
269 268 265 270 270 272 272 268 267 267 265 264 263 262 260 259 258 257 252 250 250 250 251 251 253 255 256 257 258 261 262 265 269 270 271 271 272 275 276 278 279 280 281
266 265 264 266 267 265 267 265 262 259 260 261 261 261 262 263 263 262 259 258 258 257 256 257 259 260 261 263 264 265 266 268 270 272 273 275 276 277 278 279 280 281 281
265 265 263 263 262 263 265 265 259 259 260 263 261 261 262 264 264 264 266 266 267 263 261 263 265 265 265 266 268 269 270 272 273 275 277 278 279 280 281 282 283 283 283
264 264 263 261 260 260 261 260 259 261 262 263 262 262 263 265 265 267 270 273 274 269 267 269 269 268 270 271 272 273 274 275 276 278 279 281 282 282 283 283 284 285 285
263 263 261 259 258 257 258 258 259 262 262 264 263 262 263 266 268 271 272 274 278 278 275 274 272 271 272 272 274 276 276 277 278 280 281 283 284 284 285 285 286 286 286
260 261 259 256 256 257 257 256 257 259 263 264 263 265 268 270 274 276 276 277 280 280 279 276 274 275 276 274 277 280 280 280 280 281 283 285 286 286 287 287 287 288 288
260 261 259 254 253 254 256 258 258 259 260 262 265 269 274 279 280 280 282 283 284 283 280 280 280 279 279 279 280 282 282 282 283 284 285 286 287 287 288 288 288 289 289
260 259 258 255 256 257 258 259 260 261 263 265 270 273 277 279 280 282 283 284 285 283 281 279 280 281 281 280 280 281 282 284 285 286 287 288 289 289 289 289 289 290 290
Height
5864 5863 5862 5860 5857 5856 5855 5854 5853 5853 5853 5854 5856 5857 5859 5861 5864 5866 5868 5870 5873 5876 5878 5880 5882 5884 5886 5887 5888 5890 5890 5891 5891 5892 5892 5892 5892 5892 5891 5891 5891 5890 5890
5861 5860 5858 5857 5854 5852 5851 5850 5850 5849 5850 5850 5852 5853 5855 5857 5860 5862 5865 5867 5870 5873 5875 5878 5880 5882 5884 5885 5887 5888 5889 5890 5890 5891 5891 5891 5892 5891 5891 5891 5891 5890 5890
5858 5857 5855 5854 5851 5849 5847 5846 5846 5845 5845 5847 5849 5850 5852 5854 5857 5859 5862 5864 5867 5870 5873 5875 5877 5880 5882 5883 5885 5887 5888 5888 5889 5890 5890 5890 5891 5891 5891 5890 5890 5890 5890
5856 5854 5852 5850 5848 5845 5844 5843 5842 5843 5843 5844 5846 5847 5849 5852 5853 5855 5858 5861 5864 5867 5870 5872 5875 5877 5879 5881 5883 5885 5886 5887 5888 5888 5889 5890 5890 5890 5890 5890 5890 5890 5890
5854 5851 5849 5847 5845 5843 5842 5841 5840 5840 5841 5842 5843 5844 5846 5848 5850 5852 5855 5858 5861 5864 5867 5869 5872 5874 5877 5879 5881 5882 5884 5885 5886 5887 5887 5888 5888 5889 5889 5889 5889 5889 5889
5850 5848 5847 5845 5843 5841 5840 5839 5839 5838 5838 5839 5840 5841 5843 5844 5847 5849 5852 5855 5858 5861 5864 5866 5869 5871 5874 5876 5878 5880 5881 5882 5884 5885 5885 5886 5886 5887 5887 5887 5887 5887 5888
5846 5845 5845 5843 5841 5840 5838 5837 5836 5836 5836 5836 5836 5838 5839 5842 5844 5846 5849 5852 5855 5858 5861 5863 5866 5868 5870 5873 5875 5877 5878 5880 5881 5882 5883 5883 5884 5884 5885 5885 5885 5885 5885
5844 5843 5842 5841 5840 5838 5837 5835 5834 5834 5834 5833 5834 5835 5837 5839 5841 5843 5846 5849 5851 5854 5857 5860 5862 5864 5867 5869 5871 5873 5875 5876 5878 5879 5880 5880 5881 5882 5882 5882 5883 5882 5882
5841 5840 5839 5838 5837 5836 5835 5834 5833 5832 5831 5831 5831 5832 5834 5836 5838 5841 5843 5846 5848 5851 5854 5856 5858 5860 5863 5865 5868 5870 5872 5873 5874 5875 5876 5877 5878 5878 5879 5879 5879 5879 5879
5839 5838 5837 5836 5835 5834 5833 5832 5831 5830 5829 5828 5828 5829 5831 5833 5836 5838 5840 5843 5845 5848 5850 5852 5855 5857 5859 5862 5864 5866 5867 5869 5870 5871 5872 5873 5874 5874 5874 5875 5875 5875 5875
5836 5835 5835 5835 5834 5833 5832 5831 5829 5828 5827 5826 5825 5826 5828 5830 5833 5835 5837 5839 5842 5844 5846 5849 5851 5853 5855 5858 5860 5862 5863 5865 5866 5867 5868 5868 5869 5869 5869 5870 5870 5870 5869
5834 5833 5833 5833 5832 5831 5830 5829 5828 5827 5825 5824 5824 5824 5826 5827 5830 5832 5834 5836 5838 5840 5842 5845 5847 5849 5852 5854 5856 5857 5858 5860 5861 5862 5863 5864 5864 5864 5864 5864 5864 5864 5863
5831 5831 5831 5831 5830 5829 5828 5827 5826 5825 5824 5823 5822 5823 5824 5825 5828 5830 5831 5833 5835 5836 5838 5841 5843 5845 5848 5850 5851 5852 5854 5855 5856 5857 5858 5858 5858 5859 5858 5858 5858 5857 5857
5829 5829 5829 5829 5828 5827 5827 5826 5824 5824 5823 5822 5821 5822 5822 5823 5825 5827 5828 5830 5831 5833 5834 5836 5838 5841 5843 5845 5846 5847 5848 5850 5851 5851 5852 5852 5852 5852 5852 5852 5851 5850 5849
5827 5827 5827 5827 5827 5826 5825 5824 5823 5823 5822 5821 5820 5821 5821 5822 5823 5824 5826 5827 5828 5830 5831 5832 5834 5836 5838 5840 5841 5842 5843 5844 5844 5845 5846 5846 5846 5846 5845 5844 5843 5842 5841
5825 5825 5825 5825 5824 5824 5823 5822 5822 5822 5821 5820 5820 5820 5820 5821 5822 5822 5823 5824 5825 5826 5828 5829 5831 5832 5834 5835 5836 5837 5838 5838 5838 5839 5839 5839 5838 5838 5837 5836 5835 5834 5833
5821 5821 5821 5821 5821 5821 5820 5820 5819 5820 5820 5819 5819 5818 5818 5818 5819 5820 5820 5821 5822 5823 5825 5826 5827 5828 5829 5830 5831 5831 5831 5832 5832 5832 5832 5832 5831 5830 5829 5828 5826 5825 5823
5816 5817 5817 5817 5818 5817 5817 5816 5816 5817 5817 5817 5817 5816 5816 5816 5817 5817 5817 5818 5819 5820 5821 5822 5822 5823 5824 5824 5825 5825 5825 5825 5825 5824 5824 5824 5823 5821 5820 5819 5818 5816 5814
5810 5810 5811 5812 5812 5813 5813 5813 5813 5814 5814 5814 5814 5814 5814 5814 5814 5814 5814 5815 5815 5816 5816 5817 5817 5818 5818 5818 5819 5819 5819 5818 5817 5817 5816 5815 5814 5813 5812 5810 5809 5807 5804
5804 5805 5807 5807 5808 5808 5808 5808 5809 5809 5810 5810 5811 5811 5811 5811 5811 5811 5811 5811 5811 5811 5812 5812 5812 5812 5812 5812 5812 5812 5811 5811 5810 5809 5808 5806 5805 5804 5802 5800 5799 5796 5794
5798 5799 5801 5802 5802 5803 5804 5803 5803 5804 5805 5806 5806 5806 5806 5806 5806 5806 5806 5806 5806 5806 5806 5806 5806 5806 5806 5805 5805 5805 5804 5803 5802 5801 5799 5797 5796 5794 5792 5790 5788 5785 5782
5792 5793 5794 5795 5796 5797 5798 5798 5798 5799 5800 5800 5801 5801 5801 5801 5801 5801 5801 5801 5801 5800 5800 5800 5800 5799 5799 5798 5798 5797 5796 5795 5793 5792 5790 5788 5786 5783 5781 5779 5776 5773 5770
5785 5786 5787 5788 5789 5790 5792 5793 5793 5794 5794 5794 5795 5796 5796 5796 5796 5795 5795 5795 5794 5794 5794 5793 5793 5792 5791 5791 5790 5788 5787 5785 5784 5782 5779 5777 5775 5772 5770 5767 5764 5760 5757
5778 5779 5780 5781 5782 5783 5784 5786 5787 5788 5788 5788 5789 5789 5790 5790 5790 5790 5789 5788 5787 5787 5786 5785 5785 5784 5783 5782 5781 5779 5778 5776 5773 5771 5769 5766 5764 5761 5758 5755 5751 5747 5743
5771 5772 5773 5773 5775 5776 5777 5779 5780 5781 5782 5783 5783 5783 5784 5784 5783 5782 5782 5781 5781 5780 5779 5778 5777 5776 5774 5773 5771 5769 5767 5765 5763 5760 5758 5755 5752 5748 5745 5741 5737 5733 5728
5764 5765 5766 5767 5768 5769 5771 5772 5773 5774 5775 5776 5777 5777 5777 5777 5776 5776 5775 5774 5773 5772 5771 5769 5768 5766 5765 5763 5761 5759 5756 5754 5752 5749 5746 5743 5739 5735 5731 5727 5722 5717 5712